AKST,Max TemperatureF,Mean TemperatureF,Min TemperatureF,Max Dew PointF,MeanDew PointF,Min DewpointF,Max Humidity, Mean Humidity, Min Humidity, Max Sea Level PressureIn, Mean Sea Level PressureIn, Min Sea Level PressureIn, Max VisibilityMiles, Mean VisibilityMiles, Min VisibilityMiles, Max Wind SpeedMPH, Mean Wind SpeedMPH, Max Gust SpeedMPH,PrecipitationIn, CloudCover, Events, WindDirDegrees
2013-12-1,27,18,8,16,11,4,92,80,60,30.54,30.47,30.41,10,10,10,7,1,,0.00,0,,358
2013-12-2,21,16,10,20,13,9,96,91,84,30.71,30.63,30.53,10,10,10,4,1,,0.00,0,,170
2013-12-3,32,24,17,31,27,14,100,98,88,30.71,30.60,30.52,10,9,5,0,0,,0.01,7,Rain-Snow,-1
2013-12-4,34,32,30,34,32,30,100,99,93,30.51,30.42,30.38,10,7,3,0,0,,0.05,8,Rain,-1
2013-12-5,35,34,33,36,34,33,100,100,93,30.47,30.42,30.36,10,4,1,0,0,,0.12,8,Rain,-1
2013-12-6,44,38,32,39,37,31,100,91,82,30.51,30.49,30.48,10,10,9,7,2,,0.00,7,Rain,137
2013-12-7,37,34,32,37,35,31,100,99,93,30.49,30.46,30.45,10,9,4,4,0,,0.00,8,,170
2013-12-8,35,32,28,35,32,28,100,98,92,30.47,30.42,30.36,10,8,2,7,1,,0.00,7,Rain,185
2013-12-9,37,35,33,37,35,34,100,99,93,30.35,30.27,30.18,10,8,2,4,0,,0.00,8,,180
2013-12-10,36,34,33,35,33,28,100,95,81,30.17,29.95,29.72,10,9,2,9,1,,0.00,7,,357
2013-12-11,33,28,24,28,17,6,82,62,43,29.71,29.56,29.43,10,10,10,16,8,29,0.00,4,,10
2013-12-12,24,20,14,11,9,6,77,62,51,29.46,29.44,29.40,10,10,9,7,3,,0.00,5,,31
2013-12-13,21,16,12,18,16,8,93,87,71,29.45,29.12,28.91,10,3,0,9,3,,0.27,7,Fog-Snow,359
2013-12-14,23,18,12,21,12,7,100,83,73,29.22,29.03,28.91,10,2,0,13,4,28,0.09,8,Fog-Snow,188
2013-12-15,19,16,12,18,13,7,93,85,74,29.90,29.58,29.22,10,2,0,15,9,28,0.37,8,Fog-Snow,173
2013-12-16,18,13,8,13,10,6,92,84,77,30.12,30.04,29.93,10,9,4,6,2,,0.00,4,Snow,15
2013-12-17,12,8,3,10,4,1,92,87,80,30.35,30.25,30.13,10,9,2,4,0,,0.00,0,,0
2013-12-18,32,16,1,31,18,-1,100,93,80,30.35,29.98,29.50,10,4,0,13,0,20,0.61,4,Fog-Snow,20
2013-12-19,32,26,19,31,23,18,100,95,91,29.70,29.62,29.51,10,8,1,13,5,20,0.19,6,Snow,27
2013-12-20,33,28,24,32,29,23,100,98,93,29.65,29.61,29.58,10,8,1,5,0,,0.01,7,Snow,357
2013-12-21,33,32,30,34,32,30,100,99,93,29.63,29.56,29.45,10,8,2,4,0,,0.28,8,Rain,-1
2013-12-22,34,30,26,34,27,17,100,87,69,29.77,29.51,29.44,10,7,2,10,2,21,0.15,8,Rain-Snow,164
2013-12-23,28,24,17,19,16,12,88,66,53,30.07,29.97,29.80,10,10,10,12,7,21,0.00,1,,35
2013-12-24,19,14,10,14,12,9,92,82,74,30.08,29.89,29.72,10,10,9,12,4,21,0.00,3,Snow,180
2013-12-25,19,16,12,15,11,8,92,82,62,29.73,29.69,29.68,10,10,10,10,4,,0.00,1,,338
2013-12-26,24,20,16,22,18,14,96,91,86,29.74,29.69,29.66,10,10,10,0,0,,0.00,6,,-1
2013-12-27,27,20,12,25,21,10,100,93,86,29.85,29.81,29.75,10,6,1,9,1,17,0.08,7,Snow,350
2013-12-28,27,26,24,27,25,21,100,96,86,29.91,29.90,29.82,10,10,5,4,0,,0.00,7,,178
2013-12-29,28,26,23,29,26,21,100,96,91,29.92,29.79,29.60,10,10,9,0,0,,0.00,7,,-1
2013-12-30,30,26,21,30,27,21,100,97,91,29.59,29.48,29.44,10,7,0,4,0,,0.00,7,Fog,170
2013-12-31,39,32,24,39,29,23,100,95,77,29.56,29.31,29.07,10,8,1,15,2,31,0.26,7,Rain,26